Location: Dugenta
(41.1333°N, 14.4500°E)
Time: 10:45:31
(UTC+00:00)

Ariane Rocket - Pass Details

Date: 03 March 2021
Orbit: 759 x 771 km, 98.7° (Epoch: 20 April)

Event Time Altitude Azimuth Distance (km) Brightness Sun altitude
Exits shadow 18:42:03 45° 102° (ESE) 1,048 3.2 -20.8°
Maximum altitude 18:42:54 50° 71° (ENE) 982 3.2 -21.0°
Drops below altitude 10° 18:47:49 10° 357° (N) 2,321 5.6 -21.9°
Sets 18:50:12 0° 352° (N) 3,251 6.5 -22.3°
